TimeCST,TemperatureF,Dew PointF,Humidity,Sea Level PressureIn,VisibilityMPH,Wind Direction,Wind SpeedMPH,Gust SpeedMPH,PrecipitationIn,Events,Conditions,WindDirDegrees,DateUTC
12:15 AM,20.7,17.6,88,29.79,2.5,SE,29.9,34.5,N/A,,Clear,130,2012-02-26 06:15:00
12:35 AM,21.0,18.0,88,29.77,2.5,SE,28.8,33.4,N/A,,Clear,140,2012-02-26 06:35:00
12:55 AM,21.2,18.1,88,29.75,3.0,SE,27.6,34.5,N/A,,Clear,140,2012-02-26 06:55:00
1:15 AM,22.1,18.3,85,29.74,4.0,SE,28.8,32.2,N/A,,Clear,140,2012-02-26 07:15:00
1:55 AM,23.9,19.2,82,29.72,1.5,SE,34.5,40.3,N/A,,Unknown,140,2012-02-26 07:55:00
2:15 AM,23.4,18.9,83,29.72,4.0,SSE,27.6,33.4,N/A,,Clear,150,2012-02-26 08:15:00
2:35 AM,23.0,18.5,83,29.70,7.0,SSE,24.2,27.6,N/A,,Clear,150,2012-02-26 08:35:00
2:55 AM,22.6,18.5,84,29.69,10.0,SSE,23.0,-,N/A,,Clear,150,2012-02-26 08:55:00
3:15 AM,22.1,18.5,86,29.68,10.0,SSE,21.9,-,N/A,,Clear,160,2012-02-26 09:15:00
3:35 AM,21.7,18.3,87,29.65,10.0,SSE,17.3,-,N/A,,Clear,150,2012-02-26 09:35:00
3:55 AM,21.9,18.3,86,29.63,10.0,SSE,17.3,-,N/A,,Clear,160,2012-02-26 09:55:00
4:15 AM,25.0,20.7,84,29.63,10.0,SSE,19.6,-,N/A,,Clear,160,2012-02-26 10:15:00
4:35 AM,27.5,21.9,80,29.63,10.0,South,17.3,-,N/A,,Clear,170,2012-02-26 10:35:00
4:55 AM,26.4,21.6,82,29.63,10.0,South,17.3,-,N/A,,Clear,180,2012-02-26 10:55:00
5:15 AM,26.4,21.9,83,29.63,10.0,South,17.3,-,N/A,,Clear,180,2012-02-26 11:15:00
5:35 AM,25.5,21.2,84,29.63,10.0,South,13.8,-,N/A,,Clear,180,2012-02-26 11:35:00
5:55 AM,30.2,24.3,79,29.63,10.0,SSW,19.6,24.2,N/A,,Clear,210,2012-02-26 11:55:00
6:15 AM,30.7,24.4,77,29.64,10.0,SW,20.7,-,N/A,,Clear,220,2012-02-26 12:15:00
6:35 AM,30.2,24.3,79,29.65,10.0,SW,21.9,-,N/A,,Clear,220,2012-02-26 12:35:00
7:15 AM,30.2,23.5,76,29.66,10.0,SW,16.1,-,N/A,,Clear,230,2012-02-26 13:15:00
7:35 AM,30.7,23.7,75,29.66,10.0,SW,16.1,-,N/A,,Clear,230,2012-02-26 13:35:00
7:55 AM,30.7,23.9,76,29.68,10.0,WSW,16.1,-,N/A,,Clear,250,2012-02-26 13:55:00
8:15 AM,30.7,23.7,75,29.68,10.0,WSW,16.1,-,N/A,,Clear,240,2012-02-26 14:15:00
8:55 AM,32.9,25.5,74,29.71,10.0,WSW,16.1,-,N/A,,Clear,250,2012-02-26 14:55:00
9:15 AM,33.8,26.2,74,29.72,10.0,SW,16.1,19.6,N/A,,Mostly Cloudy,230,2012-02-26 15:15:00
9:35 AM,33.8,26.1,73,29.72,10.0,SW,18.4,23.0,N/A,,Overcast,230,2012-02-26 15:35:00
9:55 AM,34.7,25.9,70,29.73,10.0,WSW,20.7,26.5,N/A,,Scattered Clouds,240,2012-02-26 15:55:00
10:15 AM,35.1,26.6,71,29.75,10.0,West,21.9,27.6,N/A,,Clear,260,2012-02-26 16:15:00
10:35 AM,35.6,27.5,72,29.76,10.0,West,26.5,31.1,N/A,,Scattered Clouds,270,2012-02-26 16:35:00
10:55 AM,35.6,28.2,75,29.78,10.0,West,20.7,-,N/A,,Mostly Cloudy,280,2012-02-26 16:55:00
11:15 AM,35.1,28.4,77,29.80,10.0,West,19.6,-,N/A,,Mostly Cloudy,280,2012-02-26 17:15:00
11:35 AM,35.6,28.2,75,29.81,10.0,West,24.2,-,N/A,,Overcast,270,2012-02-26 17:35:00
11:55 AM,34.7,27.7,76,29.82,10.0,West,19.6,-,N/A,,Overcast,280,2012-02-26 17:55:00
12:15 PM,34.2,27.3,76,29.82,10.0,West,19.6,26.5,N/A,,Mostly Cloudy,270,2012-02-26 18:15:00
12:35 PM,33.8,27.3,77,29.84,10.0,West,24.2,31.1,N/A,,Clear,280,2012-02-26 18:35:00
12:55 PM,33.3,26.4,76,29.84,10.0,West,23.0,31.1,N/A,,Clear,280,2012-02-26 18:55:00
1:15 PM,33.3,25.9,74,29.85,10.0,WNW,23.0,31.1,N/A,,Clear,290,2012-02-26 19:15:00
1:35 PM,33.1,25.9,75,29.85,10.0,West,23.0,-,N/A,,Clear,280,2012-02-26 19:35:00
1:55 PM,32.5,25.2,74,29.87,10.0,WNW,24.2,31.1,N/A,,Clear,290,2012-02-26 19:55:00
2:15 PM,32.2,24.8,74,29.88,10.0,WNW,24.2,31.1,N/A,,Clear,290,2012-02-26 20:15:00
2:35 PM,32.0,25.0,75,29.88,10.0,WNW,21.9,-,N/A,,Clear,290,2012-02-26 20:35:00
2:55 PM,32.0,24.8,75,29.90,10.0,WNW,21.9,27.6,N/A,,Clear,290,2012-02-26 20:55:00
3:15 PM,31.8,24.3,74,29.91,10.0,WNW,26.5,29.9,N/A,,Clear,290,2012-02-26 21:15:00
3:35 PM,31.8,23.9,73,29.92,10.0,WNW,24.2,32.2,N/A,,Clear,290,2012-02-26 21:35:00
3:55 PM,31.8,23.9,73,29.93,10.0,WNW,23.0,29.9,N/A,,Clear,300,2012-02-26 21:55:00
4:15 PM,31.8,24.4,74,29.94,10.0,WNW,19.6,25.3,N/A,,Clear,290,2012-02-26 22:15:00
4:35 PM,31.8,24.3,74,29.95,10.0,WNW,20.7,-,N/A,,Clear,290,2012-02-26 22:35:00
4:55 PM,31.1,23.9,75,29.96,10.0,WNW,18.4,-,N/A,,Clear,290,2012-02-26 22:55:00
5:15 PM,30.9,23.9,75,29.97,10.0,West,16.1,-,N/A,,Clear,280,2012-02-26 23:15:00
5:35 PM,30.2,23.0,75,29.99,10.0,WNW,19.6,24.2,N/A,,Clear,290,2012-02-26 23:35:00
5:55 PM,29.3,22.6,76,29.99,10.0,WNW,21.9,26.5,N/A,,Clear,290,2012-02-26 23:55:00
6:15 PM,28.8,22.1,76,30.00,10.0,WNW,24.2,29.9,N/A,,Clear,290,2012-02-27 00:15:00
6:35 PM,28.2,21.2,75,30.01,10.0,WNW,23.0,31.1,N/A,,Clear,290,2012-02-27 00:35:00
6:55 PM,27.5,21.9,80,30.04,10.0,West,17.3,-,N/A,,Clear,280,2012-02-27 00:55:00
7:15 PM,27.0,21.6,80,30.04,10.0,WNW,18.4,21.9,N/A,,Clear,290,2012-02-27 01:15:00
7:35 PM,26.4,20.8,79,30.05,10.0,WNW,21.9,-,N/A,,Clear,290,2012-02-27 01:35:00
7:55 PM,25.5,19.4,78,30.06,10.0,WNW,20.7,25.3,N/A,,Clear,300,2012-02-27 01:55:00
8:15 PM,24.4,18.3,78,30.07,10.0,WNW,23.0,27.6,N/A,,Clear,290,2012-02-27 02:15:00
8:35 PM,23.5,16.5,75,30.08,10.0,WNW,23.0,28.8,N/A,,Clear,290,2012-02-27 02:35:00
8:55 PM,22.5,15.8,76,30.09,10.0,WNW,24.2,31.1,N/A,,Clear,300,2012-02-27 02:55:00
9:15 PM,21.6,15.4,77,30.11,10.0,WNW,21.9,25.3,N/A,,Clear,290,2012-02-27 03:15:00
9:35 PM,20.7,14.2,76,30.12,10.0,WNW,23.0,32.2,N/A,,Clear,290,2012-02-27 03:35:00
9:55 PM,19.9,14.0,78,30.14,10.0,WNW,21.9,26.5,N/A,,Clear,290,2012-02-27 03:55:00
10:15 PM,19.4,13.6,78,30.16,10.0,WNW,20.7,-,N/A,,Clear,290,2012-02-27 04:15:00
10:35 PM,18.7,13.3,79,30.16,10.0,WNW,23.0,26.5,N/A,,Clear,290,2012-02-27 04:35:00
10:55 PM,18.3,13.1,80,30.17,10.0,WNW,21.9,28.8,N/A,,Clear,290,2012-02-27 04:55:00
11:15 PM,17.6,12.7,81,30.18,10.0,WNW,24.2,-,N/A,,Clear,290,2012-02-27 05:15:00
11:35 PM,17.4,12.0,79,30.18,10.0,WNW,23.0,27.6,N/A,,Clear,290,2012-02-27 05:35:00
11:55 PM,16.7,12.0,82,30.19,10.0,WNW,21.9,-,N/A,,Clear,290,2012-02-27 05:55:00